Regional Weather Roundup
Issued by NWS

Home | Current Version | Previous Version | Text Only | Print | Product List | Glossary Off
Versions: 1 2 3 4 5 6 7 8 9 10 11 12 13 14 15 16 17 18 19 20 21 22 23 24 25 26 27 28 29 30 31 32 33 34 35 36 37 38 39 40 41 42 43 44 45 46 47 48 49 50

000
ASUS45 KABQ 272110
RWRNM
NEW MEXICO REGIONAL WEATHER ROUNDUP
NATIONAL WEATHER SERVICE ALBUQUERQUE NM
200 PM MST MON FEB 27 2017

NOTE: "FAIR" MEANS FEW OR NO CLOUDS BELOW 12,000 FEET AGL WITH NO
       SIGNIFICANT WEATHER OR OBSTRUCTIONS TO VISION.

      THIS PRODUCT IS RELEASED AS TWO VERSIONS.  ONE VERSION NEAR
      THE TOP OF THE HOUR CONTAINING PRELIMINARY DATA FROM ALBUQUERQUE
      AND OTHER STATIONS.  A FINAL VERSION WITH ADDITIONAL DATA IS
      ISSUED ABOUT 10 MINUTES AFTER THE HOUR.

NMZ501-503-504-510>518-272200-
NORTHWEST PLATEAU/NORTHCENTRAL MOUNTAINS

CITY           SKY/WX    TMP DP  RH WIND       PRES   REMARKS
FARMINGTON     FAIR      47  17  30 W8        29.82F
LOS ALAMOS     FAIR      44  17  34 S20G29    29.89F
SANTA FE       FAIR      51  19  28 SW20G30   29.88F
TAOS           FAIR      43  18  36 SW14G23   29.87F
ANGEL FIRE     FAIR      38  17  41 W16G23    29.86F WCI  29

$$
NMZ402-403-502-505>509-272200-
WESTCENTRAL MOUNTAINS/SOUTHWEST MOUNTAINS

CITY           SKY/WX    TMP DP  RH WIND       PRES   REMARKS
GALLUP         CLOUDY    46  24  42 SW18      29.88F
GRANTS         FAIR      52  16  24 SW13G22   29.89F
SILVER CITY    FAIR      56  20  25 SW10G20   29.98F

$$
NMZ407-409-411-412-272200-
SOUTHERN DESERTS

CITY           SKY/WX    TMP DP  RH WIND       PRES   REMARKS
DEMING         FAIR      64  25  22 W18G29    29.94F
LAS CRUCES     FAIR      64  22  20 SW12G20   29.96F
HOLLOMAN AFB   FAIR      63  20  19 VRB7G17   29.97F
ALAMOGORDO     FAIR      63  19  19 SW15      29.95F
T OR C         FAIR      65   8  10 SW13G21   29.86F

$$
NMZ519>523-272200-
CENTRAL VALLEYS/CENTRAL HIGHLANDS

CITY           SKY/WX    TMP DP  RH WIND       PRES   REMARKS
ALBUQUERQUE    PTSUNNY   54  20  26 SW7       29.87F
DOUBLE EAGLE   PTSUNNY   55  25  30 SW8       29.88F
MORIARTY ARPT  FAIR      58  12  16 SW24G36   29.90F
CLINES CORNERS FAIR      51  10  19 W25G38    29.89F
BELEN          FAIR      59  15  17 SW9       29.85F
SOCORRO        FAIR      64  15  15 SE20      29.86F

$$
NMZ524>526-539-540-272200-
SOUTHCENTRAL MOUNTAINS

CITY           SKY/WX    TMP DP  RH WIND       PRES   REMARKS
RUIDOSO        FAIR      55   9  15 SW33G43   29.91F

$$
NMZ527>531-272200-
NORTHEAST HIGHLANDS/NORTHEAST PLAINS

CITY           SKY/WX    TMP DP  RH WIND       PRES   REMARKS
LAS VEGAS      FAIR      49  11  21 W33G44    29.83F
RATON          FAIR      56   6  13 SW20G31   29.73F
CLAYTON        FAIR      66  14  13 SW36G46   29.66F

$$
NMZ532>537-272200-
EASTCENTRAL PLAINS

CITY           SKY/WX    TMP DP  RH WIND       PRES   REMARKS
TUCUMCARI      FAIR      70  15  12 W20G38    29.75F
CANNON AFB     FAIR      67  16  14 SW25G31   29.81F
CLOVIS AIRPORT FAIR      66  19  16 SW21      29.82F

$$
NMZ028-029-538-272200-
SOUTHEAST PLAINS

CITY           SKY/WX    TMP DP  RH WIND       PRES   REMARKS
ROSWELL        FAIR      78  -3   4 W25G35      N/A
ARTESIA        FAIR      72  19  14 SW30G39   29.83F
CARLSBAD       FAIR      71  20  14 W26       29.84F
HOBBS          SUNNY     73  14  10 SW16G29   29.86F


$$




USA.gov is the U.S. government's official web portal to all federal, state and local government web resources and services.